�������l�o���
Date,Time,MP-1(��Sv/h),MP-2(��Sv/h),MP-3(��Sv/h),MP-4(��Sv/h),MP-5(��Sv/h),MP-6(��Sv/h),MP-7(��Sv/h),MP-8(��Sv/h),����,����(m/s),���J
2018/07/09,00:00,0.853,1.221,0.850,1.523,1.066,0.470,0.819,0.780,��,0.9,��
2018/07/09,00:10,0.852,1.220,0.849,1.525,1.066,0.469,0.819,0.779,�k,1.5,��
2018/07/09,00:20,0.851,1.221,0.849,1.525,1.064,0.469,0.819,0.779,�k�k��,1.5,��
2018/07/09,00:30,0.851,1.220,0.849,1.526,1.064,0.468,0.821,0.777,�k,1.1,��
2018/07/09,00:40,0.851,1.218,0.848,1.523,1.064,0.469,0.818,0.778,�k,0.9,��
2018/07/09,00:50,0.852,1.218,0.850,1.523,1.062,0.469,0.821,0.778,�k�k��,1.1,��
2018/07/09,01:00,0.851,1.217,0.850,1.527,1.066,0.471,0.821,0.777,�k�k��,1.2,��
2018/07/09,01:10,0.850,1.221,0.848,1.525,1.067,0.470,0.819,0.776,�k�k��,0.9,��
2018/07/09,01:20,0.850,1.222,0.849,1.526,1.065,0.470,0.820,0.779,�k�k��,2.0,��
2018/07/09,01:30,0.851,1.217,0.848,1.527,1.066,0.471,0.819,0.781,�k�k��,1.5,��
2018/07/09,01:40,0.850,1.217,0.850,1.523,1.067,0.471,0.819,0.778,�k,0.9,��
2018/07/09,01:50,0.852,1.220,0.848,1.527,1.066,0.470,0.819,0.779,�k�k��,0.6,��
2018/07/09,02:00,0.850,1.220,0.850,1.528,1.065,0.470,0.819,0.778,�k�k��,0.6,��
2018/07/09,02:10,0.853,1.218,0.851,1.525,1.068,0.470,0.819,0.779,���k��,1.1,��
2018/07/09,02:20,0.851,1.218,0.850,1.525,1.067,0.471,0.819,0.779,���k��,0.9,��
2018/07/09,02:30,0.850,1.218,0.852,1.524,1.066,0.471,0.821,0.779,�k,1.2,��
2018/07/09,02:40,0.850,1.221,0.849,1.523,1.065,0.470,0.819,0.780,�k�k��,1.9,��
2018/07/09,02:50,0.850,1.219,0.848,1.528,1.067,0.470,0.820,0.779,�k�k��,2.3,��
2018/07/09,03:00,0.850,1.216,0.850,1.526,1.066,0.471,0.820,0.780,�k,2.5,��
2018/07/09,03:10,0.849,1.219,0.849,1.524,1.069,0.470,0.819,0.778,�k,2.5,��
2018/07/09,03:20,0.852,1.218,0.847,1.528,1.068,0.469,0.818,0.780,�k�k��,1.2,��
2018/07/09,03:30,0.849,1.216,0.849,1.527,1.065,0.469,0.819,0.779,�k��,1.7,��
2018/07/09,03:40,0.849,1.218,0.849,1.527,1.065,0.469,0.819,0.779,���k��,1.4,��
2018/07/09,03:50,0.852,1.216,0.850,1.524,1.066,0.471,0.819,0.778,�k�k��,0.9,��
2018/07/09,04:00,0.853,1.219,0.849,1.527,1.067,0.470,0.820,0.781,��,1.5,��
2018/07/09,04:10,0.851,1.216,0.848,1.526,1.065,0.470,0.821,0.780,��쐼,1.5,��
2018/07/09,04:20,0.852,1.214,0.850,1.525,1.066,0.469,0.819,0.779,���쐼,1.2,��
2018/07/09,04:30,0.855,1.218,0.850,1.525,1.069,0.471,0.820,0.780,���쐼,0.9,��
2018/07/09,04:40,0.852,1.217,0.848,1.527,1.066,0.470,0.820,0.781,��쐼,0.9,��
2018/07/09,04:50,0.853,1.217,0.849,1.526,1.066,0.471,0.820,0.780,��쐼,0.9,��
2018/07/09,05:00,0.853,1.219,0.848,1.526,1.066,0.471,0.820,0.778,-,CALM,��
2018/07/09,05:10,0.851,1.217,0.849,1.527,1.068,0.469,0.819,0.780,���쐼,0.8,��
2018/07/09,05:20,0.850,1.217,0.848,1.526,1.068,0.469,0.818,0.779,-,CALM,��
2018/07/09,05:30,0.850,1.217,0.848,1.523,1.069,0.469,0.818,0.779,-,CALM,��
2018/07/09,05:40,0.853,1.217,0.848,1.525,1.065,0.470,0.820,0.779,-,CALM,��
2018/07/09,05:50,0.851,1.217,0.848,1.526,1.069,0.470,0.818,0.781,�k�k��,1.2,��
2018/07/09,06:00,0.852,1.216,0.847,1.526,1.067,0.470,0.819,0.778,�k�k��,1.7,��
2018/07/09,06:10,0.852,1.216,0.848,1.526,1.066,0.470,0.818,0.777,�k�k��,2.0,��
2018/07/09,06:20,0.852,1.215,0.847,1.524,1.066,0.469,0.821,0.778,�k��,0.9,��
2018/07/09,06:30,0.851,1.220,0.848,1.528,1.065,0.468,0.818,0.779,-,CALM,��
2018/07/09,06:40,0.853,1.220,0.849,1.528,1.066,0.470,0.819,0.777,��쓌,0.8,�L
2018/07/09,06:50,0.850,1.217,0.847,1.525,1.065,0.469,0.820,0.779,�쓌,1.2,��
2018/07/09,07:00,0.849,1.217,0.847,1.524,1.068,0.470,0.820,0.780,�쓌,1.7,��
2018/07/09,07:10,0.849,1.214,0.845,1.527,1.067,0.467,0.819,0.779,���쓌,2.0,��
2018/07/09,07:20,0.847,1.214,0.848,1.525,1.066,0.468,0.818,0.777,�쓌,1.7,��
2018/07/09,07:30,0.848,1.217,0.846,1.524,1.064,0.467,0.818,0.777,�쓌,1.2,��
2018/07/09,07:40,0.847,1.214,0.847,1.525,1.065,0.468,0.818,0.778,�쓌,1.4,��
2018/07/09,07:50,0.846,1.214,0.848,1.524,1.064,0.466,0.817,0.777,�쓌,1.1,��
2018/07/09,08:00,0.847,1.214,0.847,1.526,1.065,0.467,0.818,0.778,��,0.8,��
2018/07/09,08:10,0.846,1.213,0.846,1.524,1.064,0.468,0.819,0.778,��,0.9,��
2018/07/09,08:20,0.851,1.217,0.846,1.526,1.065,0.467,0.819,0.778,��,0.9,��
2018/07/09,08:30,0.852,1.213,0.846,1.524,1.066,0.466,0.820,0.777,��쓌,1.4,��
2018/07/09,08:40,0.848,1.215,0.848,1.528,1.067,0.468,0.818,0.778,��쓌,1.7,��
2018/07/09,08:50,0.849,1.214,0.845,1.526,1.068,0.466,0.818,0.776,�쓌,1.7,��
2018/07/09,09:00,0.848,1.216,0.847,1.528,1.066,0.468,0.820,0.776,���쓌,1.2,��
2018/07/09,09:10,0.849,1.213,0.844,1.527,1.064,0.468,0.817,0.776,��,1.4,��
2018/07/09,09:20,0.848,1.211,0.846,1.527,1.064,0.469,0.819,0.776,���쓌,1.2,��
2018/07/09,09:30,0.850,1.214,0.846,1.526,1.065,0.468,0.821,0.778,���쓌,2.0,��
2018/07/09,09:40,0.850,1.219,0.845,1.525,1.067,0.469,0.820,0.779,���쓌,1.5,��
2018/07/09,09:50,0.851,1.215,0.847,1.526,1.067,0.470,0.823,0.778,���쓌,1.4,��
2018/07/09,10:00,0.852,1.218,0.849,1.527,1.069,0.469,0.820,0.778,�쓌,2.0,��
2018/07/09,10:10,0.852,1.218,0.848,1.524,1.069,0.470,0.820,0.779,���쓌,1.4,��
2018/07/09,10:20,0.851,1.221,0.849,1.524,1.071,0.469,0.819,0.776,��쓌,3.5,��
2018/07/09,10:30,0.852,1.221,0.848,1.528,1.071,0.469,0.819,0.778,�쓌,2.9,��
2018/07/09,10:40,0.850,1.221,0.847,1.530,1.069,0.469,0.819,0.779,��쓌,6.2,��
2018/07/09,10:50,0.852,1.220,0.847,1.528,1.069,0.470,0.819,0.777,��쓌,2.3,��
2018/07/09,11:00,0.849,1.219,0.849,1.528,1.072,0.471,0.819,0.777,��쓌,2.3,��
2018/07/09,11:10,0.851,1.221,0.849,1.528,1.072,0.469,0.821,0.779,��쓌,5.3,��
2018/07/09,11:20,0.850,1.221,0.849,1.530,1.071,0.472,0.820,0.778,��,5.8,��
2018/07/09,11:30,0.852,1.221,0.848,1.527,1.072,0.471,0.821,0.778,��,7.1,��
2018/07/09,11:40,0.853,1.223,0.851,1.527,1.072,0.472,0.821,0.778,��,9.0,��
2018/07/09,11:50,0.852,1.220,0.849,1.530,1.071,0.472,0.822,0.778,��,9.5,�L
2018/07/09,12:00,0.854,1.219,0.849,1.527,1.072,0.470,0.822,0.780,��,9.0,�L
2018/07/09,12:10,0.853,1.223,0.850,1.529,1.075,0.472,0.823,0.779,��,6.8,�L
2018/07/09,12:20,0.855,1.223,0.852,1.529,1.074,0.474,0.823,0.779,��,4.8,�L
2018/07/09,12:30,0.858,1.226,0.851,1.528,1.075,0.473,0.822,0.780,��,4.5,��
2018/07/09,12:40,0.857,1.225,0.853,1.528,1.074,0.472,0.824,0.779,��쓌,7.4,��
2018/07/09,12:50,0.854,1.224,0.852,1.529,1.074,0.473,0.821,0.781,��쓌,9.8,��
2018/07/09,13:00,0.857,1.225,0.852,1.529,1.075,0.473,0.822,0.779,��,9.1,��
2018/07/09,13:10,0.857,1.227,0.852,1.531,1.075,0.474,0.823,0.778,��쓌,10.5,��
2018/07/09,13:20,0.856,1.229,0.851,1.534,1.076,0.473,0.823,0.779,��쓌,10.7,��
2018/07/09,13:30,0.858,1.228,0.852,1.531,1.074,0.474,0.821,0.779,��쓌,9.3,��
2018/07/09,13:40,0.857,1.227,0.853,1.535,1.078,0.472,0.824,0.779,��쓌,11.3,��
2018/07/09,13:50,0.856,1.232,0.853,1.533,1.075,0.475,0.822,0.781,��쓌,10.6,��
2018/07/09,14:00,0.858,1.230,0.853,1.533,1.074,0.474,0.822,0.780,��쓌,11.8,��
2018/07/09,14:10,0.858,1.228,0.854,1.532,1.077,0.473,0.823,0.780,��,9.8,��
2018/07/09,14:20,0.858,1.232,0.854,1.534,1.076,0.474,0.823,0.782,��,9.9,��
2018/07/09,14:30,0.857,1.235,0.855,1.530,1.077,0.472,0.823,0.781,��,11.8,��
2018/07/09,14:40,0.858,1.236,0.853,1.532,1.077,0.473,0.823,0.781,��,11.8,��
2018/07/09,14:50,0.859,1.233,0.854,1.535,1.079,0.477,0.824,0.781,��,12.5,��
2018/07/09,15:00,0.859,1.233,0.855,1.534,1.080,0.474,0.826,0.782,��쓌,13.1,��
2018/07/09,15:10,0.860,1.236,0.854,1.534,1.079,0.476,0.823,0.780,��쓌,14.3,��
2018/07/09,15:20,0.858,1.236,0.856,1.532,1.079,0.476,0.827,0.781,��쓌,14.9,��
2018/07/09,15:30,0.860,1.235,0.855,1.537,1.077,0.474,0.825,0.782,��쓌,14.0,��
2018/07/09,15:40,0.860,1.239,0.855,1.534,1.077,0.477,0.824,0.779,��쓌,13.6,��
2018/07/09,15:50,0.860,1.236,0.857,1.538,1.082,0.474,0.826,0.781,��쓌,13.0,��
2018/07/09,16:00,0.860,1.235,0.855,1.534,1.080,0.475,0.824,0.781,��,11.2,��
2018/07/09,16:10,0.860,1.235,0.855,1.533,1.079,0.476,0.824,0.781,��,9.4,��
2018/07/09,16:20,0.859,1.239,0.853,1.535,1.079,0.475,0.823,0.780,��,8.6,��
2018/07/09,16:30,0.865,1.235,0.855,1.536,1.081,0.475,0.825,0.780,��,8.9,��
2018/07/09,16:40,0.860,1.238,0.857,1.534,1.080,0.477,0.824,0.781,��,7.9,��
2018/07/09,16:50,0.859,1.236,0.854,1.534,1.081,0.475,0.822,0.780,��,9.0,��
2018/07/09,17:00,0.860,1.239,0.854,1.537,1.080,0.474,0.824,0.782,��,9.8,��
2018/07/09,17:10,0.861,1.236,0.856,1.536,1.081,0.475,0.821,0.781,��,10.5,��
2018/07/09,17:20,0.859,1.237,0.857,1.536,1.081,0.474,0.825,0.780,��,10.0,��
2018/07/09,17:30,0.859,1.238,0.856,1.537,1.082,0.475,0.824,0.780,��,9.0,��
2018/07/09,17:40,0.859,1.239,0.856,1.537,1.084,0.475,0.824,0.783,��,8.6,��
2018/07/09,17:50,0.861,1.237,0.858,1.535,1.082,0.477,0.825,0.784,��,8.9,��
2018/07/09,18:00,0.863,1.238,0.857,1.537,1.083,0.474,0.824,0.783,��,8.2,��
2018/07/09,18:10,0.861,1.237,0.860,1.537,1.082,0.476,0.824,0.784,��,8.9,��
2018/07/09,18:20,0.862,1.240,0.856,1.536,1.084,0.475,0.824,0.784,��,9.1,��
2018/07/09,18:30,0.862,1.237,0.858,1.538,1.083,0.476,0.826,0.783,��,9.0,��
2018/07/09,18:40,0.862,1.240,0.860,1.539,1.082,0.477,0.823,0.784,��,9.7,��
2018/07/09,18:50,0.862,1.240,0.857,1.540,1.083,0.476,0.826,0.782,��,8.3,��
2018/07/09,19:00,0.860,1.239,0.859,1.539,1.083,0.477,0.824,0.783,��,7.9,��
2018/07/09,19:10,0.861,1.237,0.860,1.538,1.082,0.476,0.825,0.783,��쐼,7.1,��
2018/07/09,19:20,0.863,1.238,0.858,1.537,1.081,0.476,0.825,0.784,��쐼,6.2,��
2018/07/09,19:30,0.861,1.238,0.859,1.538,1.082,0.477,0.823,0.784,��쐼,5.4,��
2018/07/09,19:40,0.861,1.239,0.860,1.541,1.084,0.475,0.824,0.783,��쐼,4.9,��
2018/07/09,19:50,0.861,1.235,0.857,1.539,1.082,0.475,0.826,0.783,��쐼,4.5,��
2018/07/09,20:00,0.862,1.238,0.860,1.539,1.082,0.476,0.825,0.783,��,4.6,��
2018/07/09,20:10,0.860,1.237,0.856,1.540,1.085,0.473,0.824,0.783,��,4.7,��
2018/07/09,20:20,0.859,1.238,0.858,1.538,1.082,0.477,0.825,0.783,��,4.2,��
2018/07/09,20:30,0.859,1.236,0.858,1.539,1.082,0.475,0.827,0.785,��,5.4,��
2018/07/09,20:40,0.860,1.236,0.857,1.538,1.080,0.475,0.824,0.784,��,4.2,��
2018/07/09,20:50,0.861,1.238,0.859,1.540,1.081,0.475,0.825,0.784,�쐼,2.3,��
2018/07/09,21:00,0.861,1.236,0.857,1.539,1.081,0.476,0.825,0.783,��쐼,2.2,��
2018/07/09,21:10,0.861,1.237,0.858,1.536,1.082,0.476,0.824,0.784,��쐼,2.6,��
2018/07/09,21:20,0.862,1.239,0.859,1.538,1.083,0.475,0.824,0.782,��쐼,2.8,��
2018/07/09,21:30,0.862,1.236,0.858,1.539,1.082,0.475,0.824,0.783,��쐼,3.4,��
2018/07/09,21:40,0.862,1.237,0.859,1.537,1.083,0.477,0.825,0.782,��,3.5,��
2018/07/09,21:50,0.862,1.235,0.859,1.536,1.083,0.474,0.825,0.783,��쐼,2.6,��
2018/07/09,22:00,0.859,1.235,0.860,1.537,1.080,0.474,0.826,0.785,��쐼,2.5,��
2018/07/09,22:10,0.862,1.236,0.859,1.539,1.081,0.475,0.825,0.785,��쐼,3.1,��
2018/07/09,22:20,0.863,1.238,0.860,1.538,1.082,0.474,0.825,0.782,��쐼,2.9,��
2018/07/09,22:30,0.862,1.238,0.858,1.540,1.081,0.475,0.825,0.783,��,4.0,��
2018/07/09,22:40,0.860,1.235,0.859,1.539,1.081,0.476,0.825,0.784,��,4.8,��
2018/07/09,22:50,0.863,1.237,0.859,1.536,1.081,0.473,0.825,0.785,��,6.0,��
2018/07/09,23:00,0.862,1.236,0.857,1.537,1.080,0.474,0.823,0.785,��,5.3,��
2018/07/09,23:10,0.861,1.237,0.856,1.539,1.080,0.474,0.826,0.785,��쐼,4.2,��
2018/07/09,23:20,0.861,1.236,0.859,1.538,1.083,0.475,0.825,0.785,��쐼,3.6,��
2018/07/09,23:30,0.862,1.238,0.859,1.538,1.082,0.477,0.824,0.783,�쐼,3.0,��
2018/07/09,23:40,0.862,1.238,0.858,1.536,1.083,0.476,0.826,0.783,�쐼,3.0,��
2018/07/09,23:50,0.863,1.237,0.858,1.537,1.080,0.474,0.824,0.785,��쐼,2.0,��
